Location: Kalisz
(51.7636°N, 18.0893°E)
Time: 19:53:14
(UTC+02:00)

ISS - Pass Details

Date: 30 March 2019
Orbit: 408 x 410 km, 51.6° (Epoch: 26 April)

Event Time Altitude Azimuth Distance (km) Brightness Sun altitude
Rises 20:50:18 0° 282° (WNW) 2,340 1.1 -22.3°
Reaches altitude 10° 20:52:25 10° 278° (W) 1,476 -0.2 -22.6°
Enters shadow 20:54:32 34° 260° (W) 696 -2.4 -22.8°
